1497582000.09,13468,18.13,73998.3,2.63,-7.57,-7.69,0,*7F
1497582001.36,13469,18.13,73992.8,2.63,-7.61,-7.43,0,*73
1497582002.6,13470,18.13,73998.0,2.63,-7.35,-7.11,0,*7D
1497582003.84,13471,18.13,73992.8,2.63,-7.23,-6.93,0,*70
1497582005.08,13472,18.13,73992.5,2.63,-7.05,-6.81,0,*74
1497582006.31,13473,18.13,73990.0,2.63,-6.93,-6.89,0,*73
1497582007.53,13474,18.13,73992.0,2.61,-7.01,-6.81,0,*74
1497582008.77,13475,18.13,73994.0,2.63,-7.01,-6.77,0,*7E
1497582009.98,13476,18.13,73998.0,2.63,-7.11,-6.51,0,*78
1497582011.22,13477,18.13,73996.5,2.63,-7.19,-6.19,0,*7D
1497582012.48,13478,18.13,73998.3,2.63,-7.01,-5.77,0,*70
1497582013.69,13479,18.13,73992.8,2.63,-6.69,-5.47,0,*7D
1497582014.93,13480,18.13,73996.5,2.63,-6.43,-5.23,0,*71
1497582016.2,13481,18.13,73994.0,2.63,-6.19,-5.19,0,*76
1497582017.44,13482,18.13,73988.5,2.63,-5.85,-5.35,0,*7D
1497582018.66,13483,18.13,73988.0,2.65,-5.61,-5.55,0,*76
1497582019.9,13484,18.13,73982.8,2.63,-5.51,-6.19,0,*7F
1497582021.13,13485,18.19,73990.5,2.63,-5.61,-6.69,0,*7A
1497582022.35,13486,18.13,73980.5,2.63,-5.47,-6.81,0,*7B
1497582023.58,13487,18.13,73982.0,2.63,-5.39,-7.35,0,*7D
1497582024.84,13488,18.13,73978.8,2.63,-5.77,-8.03,0,*72
1497582026.07,13489,18.13,73980.8,2.63,-6.43,-8.81,0,*7D
1497582027.31,13490,18.13,73986.8,2.65,-7.01,-9.15,0,*78
1497582028.56,13491,18.13,73994.8,2.63,-7.91,-9.49,0,*7F
1497582029.77,13492,18.19,73992.8,2.63,-8.63,-8.93,0,*78
1497582031.01,13493,18.13,73992.0,2.63,-9.11,-8.63,0,*72
1497582032.24,13494,18.13,73990.3,2.63,-9.45,-8.29,0,*7A
1497582033.5,13495,18.13,73994.5,2.63,-9.61,-7.99,0,*79
1497582034.74,13496,18.13,73990.3,2.61,-9.45,-7.99,0,*7E
1497582035.97,13497,18.13,73988.0,2.63,-9.31,-7.91,0,*76
1497582037.21,13498,18.13,73998.0,2.63,-9.05,-7.73,0,*72
1497582038.48,13499,18.13,73992.5,2.63,-9.11,-7.91,0,*7A
1497582039.71,13500,18.19,74000.0,2.63,-9.19,-7.99,0,*7B
1497582040.91,13501,18.13,73996.3,2.65,-9.01,-7.53,0,*73
1497582042.12,13502,18.13,73994.0,2.65,-8.75,-7.31,0,*76
1497582043.37,13503,18.13,73998.0,2.63,-8.55,-7.43,0,*76
1497582044.6,13504,18.13,73996.0,2.63,-8.29,-7.73,0,*79
1497582045.81,13505,18.13,73992.3,2.63,-8.17,-8.29,0,*75
1497582047.07,13506,18.13,73994.8,2.63,-8.51,-8.81,0,*76
1497582048.28,13507,18.13,73994.3,2.63,-8.63,-9.19,0,*76
1497582049.52,13508,18.13,73988.5,2.63,-9.05,-9.61,0,*77
1497582050.73,13509,18.13,73996.5,2.63,-10.05,-9.67,0,*48
1497582051.97,13510,18.13,73996.5,2.63,-10.49,-9.37,0,*4D
1497582053.21,13511,18.13,74002.5,2.63,-10.63,-8.85,0,*4C
1497582054.4,13512,18.13,74000.3,2.65,-10.85,-8.29,0,*47
1497582055.62,13513,18.13,74002.3,2.63,-10.57,-7.23,0,*4A
1497582056.85,13514,18.13,73988.8,2.63,-9.93,-6.63,0,*78
1497582058.06,13515,18.13,73996.3,2.63,-9.31,-6.39,0,*7E
1497582059.27,13516,18.13,73996.8,2.63,-8.67,-6.09,0,*7C
1497582060.51,13517,18.13,74000.0,2.63,-7.83,-5.85,0,*7F
1497582061.74,13518,18.13,73992.3,2.63,-7.35,-6.01,0,*72
1497582063.0,13519,18.13,73992.8,2.63,-7.05,-6.27,0,*74
1497582064.21,13520,18.13,73998.0,2.63,-6.89,-6.39,0,*74
1497582065.4,13521,18.13,73998.5,2.65,-6.59,-6.51,0,*70
1497582066.61,13522,18.13,73996.0,2.63,-6.39,-6.77,0,*77
1497582067.83,13523,18.13,73994.5,2.65,-6.35,-7.27,0,*78
1497582069.03,13524,18.13,73992.3,2.65,-6.55,-7.83,0,*77
1497582070.21,13525,18.13,73992.0,2.65,-6.89,-8.25,0,*74
1497582071.47,13526,18.13,74000.8,2.63,-7.31,-8.81,0,*7D
1497582072.68,13527,18.13,73996.5,2.65,-7.77,-8.93,0,*7B
1497582073.91,13528,18.13,74000.3,2.63,-8.29,-9.37,0,*79
1497582075.15,13529,18.13,74002.3,2.63,-8.63,-9.57,0,*70
1497582076.38,13530,18.13,74006.3,2.65,-8.81,-9.57,0,*72
1497582077.63,13531,18.13,74000.3,2.63,-9.11,-9.93,0,*75
1497582078.85,13532,18.13,74002.5,2.63,-9.67,-10.27,0,*40
1497582080.07,13533,18.13,74004.5,2.65,-9.89,-10.41,0,*47
1497582081.29,13534,18.13,74004.5,2.65,-9.75,-10.79,0,*48
1497582082.52,13535,18.13,74004.0,2.65,-9.71,-11.67,0,*43
1497582083.76,13536,18.13,74002.8,2.63,-10.05,-12.79,0,*71
1497582085.0,13537,18.13,74004.3,2.63,-10.71,-13.69,0,*73
1497582086.2,13538,18.13,74004.0,2.65,-11.23,-14.37,0,*70
1497582087.43,13539,18.13,74006.8,2.65,-12.03,-15.39,0,*7F
1497582088.65,13540,18.13,74004.3,2.63,-13.07,-16.45,0,*7A
1497582089.9,13541,18.13,74002.8,2.63,-14.11,-17.45,0,*7A
1497582091.11,13542,18.13,74000.0,2.63,-15.11,-18.25,0,*71
1497582092.36,13543,18.13,74006.0,2.65,-16.13,-19.27,0,*74
1497582093.58,13544,18.13,74004.3,2.61,-17.03,-19.03,0,*71
1497582094.83,13545,18.13,74000.0,2.63,-17.17,-19.13,0,*76
1497582096.06,13546,18.13,74004.5,2.65,-17.59,-19.37,0,*7F
1497582097.3,13547,18.13,74004.0,2.63,-17.63,-19.17,0,*73
1497582098.55,13548,18.13,74006.3,2.63,-17.21,-19.47,0,*7F
1497582099.78,13549,18.13,74004.0,2.61,-17.97,-20.09,0,*71
1497582101.0,13550,18.13,74006.3,2.61,-18.55,-19.75,0,*79
1497582102.2,13551,18.13,74006.0,2.61,-18.79,-20.05,0,*7B
1497582103.43,13552,18.13,74000.8,2.61,-19.13,-20.79,0,*7E
1497582104.67,13553,18.13,74004.8,2.59,-20.25,-21.53,0,*72
1497582105.87,13554,18.13,74006.0,2.61,-20.69,-22.27,0,*76
1497582107.12,13555,18.13,74002.8,2.61,-21.57,-22.73,0,*7A
1497582108.39,13556,18.13,74006.0,2.59,-22.31,-21.33,0,*76
1497582109.67,13557,18.13,74000.3,2.59,-21.53,-19.85,0,*76
1497582110.89,13558,18.13,74002.3,2.59,-20.59,-19.07,0,*78
1497582112.11,13559,18.13,74000.8,2.59,-20.39,-18.45,0,*78
1497582113.36,13560,18.13,74000.3,2.57,-19.85,-17.55,0,*7F
1497582114.61,13561,18.13,74000.0,2.59,-19.31,-16.97,0,*70
1497582115.86,13562,18.13,74002.3,2.59,-19.51,-16.31,0,*79
1497582117.12,13563,18.13,74000.5,2.59,-19.17,-14.55,0,*7A
1497582118.32,13564,18.13,74000.0,2.61,-17.35,-13.23,0,*7E
1497582119.6,13565,18.13,73998.0,2.59,-15.57,-12.35,0,*74
1497582120.83,13566,18.13,74004.0,2.61,-14.15,-12.11,0,*7D
1497582122.11,13567,18.13,74002.8,2.59,-13.61,-12.11,0,*73
1497582123.34,13568,18.13,74002.8,2.59,-13.73,-12.97,0,*71
1497582124.53,13569,18.13,74002.5,2.61,-14.23,-13.43,0,*71
1497582125.78,13570,18.13,74000.3,2.59,-14.83,-13.47,0,*7C
1497582127.03,13571,18.13,74000.8,2.59,-15.49,-13.29,0,*72
1497582128.25,13572,18.13,74002.5,2.61,-15.67,-12.53,0,*7A
1497582129.5,13573,18.13,74006.8,2.59,-15.49,-11.73,0,*7D
1497582130.72,13574,18.13,74000.5,2.61,-15.29,-10.71,0,*74
1497582131.94,13575,18.13,74002.8,2.59,-15.29,-9.27,0,*45
1497582133.17,13576,18.13,74000.0,2.61,-13.83,-7.19,0,*48
1497582134.38,13577,18.13,74000.0,2.61,-11.97,-5.97,0,*4A
1497582135.56,13578,18.13,74002.8,2.61,-9.89,-5.47,0,*7E
1497582136.81,13579,18.13,73996.8,2.59,-8.85,-5.15,0,*7E
1497582138.05,13580,18.13,73994.3,2.61,-7.99,-5.11,0,*75
1497582139.29,13581,18.13,73996.5,2.61,-7.27,-4.85,0,*7D
1497582140.5,13582,18.13,73998.3,2.61,-6.69,-4.81,0,*71
1497582141.73,13583,18.13,73996.0,2.61,-6.27,-4.85,0,*7E
1497582142.95,13584,18.13,73998.3,2.61,-5.97,-5.07,0,*7A
1497582144.16,13585,18.13,73996.8,2.61,-5.77,-5.35,0,*74
1497582145.43,13586,18.13,73994.3,2.59,-5.69,-5.69,0,*7A
1497582146.63,13587,18.13,73994.8,2.61,-5.73,-6.01,0,*76
1497582147.87,13588,18.13,73994.3,2.61,-5.77,-6.27,0,*79
1497582149.06,13589,18.13,73990.3,2.61,-6.09,-6.51,0,*73
1497582150.27,13590,18.13,73990.8,2.61,-6.27,-6.69,0,*7C
1497582151.48,13591,18.13,73992.8,2.61,-6.47,-6.93,0,*7E
1497582152.71,13592,18.13,73994.3,2.61,-6.63,-7.31,0,*72
1497582153.93,13593,18.13,73992.3,2.61,-6.77,-7.61,0,*73
1497582155.17,13594,18.13,73994.3,2.61,-6.93,-8.11,0,*76
1497582156.42,13595,18.13,73992.3,2.59,-7.05,-8.81,0,*7B
1497582157.61,13596,18.13,73988.5,2.61,-7.19,-9.19,0,*7E
1497582158.88,13597,18.13,73988.8,2.59,-7.61,-9.83,0,*78
1497582160.09,13598,18.13,73990.3,2.61,-8.03,-10.45,0,*45
1497582161.29,13599,18.13,73988.8,2.61,-8.63,-11.11,0,*42
1497582162.53,13600,18.13,73990.8,2.63,-9.23,-11.29,0,*4D
1497582163.74,13601,18.13,73990.3,2.61,-9.89,-11.55,0,*45
1497582164.99,13602,18.13,73990.3,2.61,-10.41,-11.81,0,*73
1497582166.21,13603,18.13,73990.0,2.61,-11.11,-12.07,0,*7B
1497582167.43,13604,18.13,73990.5,2.61,-11.73,-12.25,0,*78
1497582168.66,13605,18.13,73994.3,2.61,-12.29,-12.53,0,*74
1497582169.91,13606,18.13,74000.5,2.63,-12.79,-12.39,0,*7C
1497582171.13,13607,18.13,73998.3,2.61,-13.11,-12.65,0,*79
1497582172.32,13608,18.13,73998.0,2.61,-13.69,-12.97,0,*74
1497582173.54,13609,18.13,73984.5,2.61,-14.65,-12.83,0,*7B
1497582174.77,13610,18.13,73986.5,2.61,-14.83,-12.93,0,*7A
1497582175.97,13611,18.13,73992.0,2.61,-15.15,-13.15,0,*7A
1497582177.19,13612,18.13,73992.3,2.61,-15.15,-12.79,0,*72
1497582178.45,13613,18.13,73994.5,2.61,-14.55,-12.71,0,*7E
1497582179.68,13614,18.13,73996.8,2.61,-14.05,-13.19,0,*73
1497582180.9,13615,18.13,73996.0,2.61,-13.79,-13.65,0,*75
1497582182.1,13616,18.13,73998.3,2.61,-13.69,-14.15,0,*77
1497582183.36,13617,18.13,73996.3,2.61,-13.83,-14.97,0,*78
1497582184.62,13618,18.13,74000.5,2.59,-14.19,-15.35,0,*71
1497582185.82,13619,18.13,74002.8,2.61,-14.23,-16.03,0,*74
1497582187.07,13620,18.13,74004.3,2.61,-14.83,-17.63,0,*73
1497582188.31,13621,18.13,74004.0,2.59,-16.31,-19.07,0,*7E
1497582189.54,13622,18.13,73996.5,2.63,-17.35,-19.95,0,*7A
1497582190.79,13623,18.13,74000.0,2.61,-18.55,-20.53,0,*70
1497582191.99,13624,18.13,74000.5,2.61,-19.95,-20.05,0,*79
1497582193.18,13625,18.13,73994.0,2.61,-19.91,-19.03,0,*70
1497582194.41,13626,18.13,73998.0,2.59,-19.17,-19.37,0,*71
1497582195.67,13627,18.13,73994.5,2.59,-18.93,-20.25,0,*74
1497582196.88,13628,18.13,73992.0,2.61,-18.99,-20.89,0,*7C
1497582198.11,13629,18.13,73994.8,2.59,-19.47,-22.03,0,*74
1497582199.33,13630,18.13,73994.8,2.59,-20.09,-23.09,0,*77
1497582200.57,13631,18.13,74000.0,2.59,-21.03,-23.89,0,*75
1497582201.83,13632,18.13,74000.0,2.59,-21.87,-24.93,0,*76
1497582203.02,13633,18.13,73998.0,2.57,-23.39,-25.87,0,*7A
1497582204.25,13634,18.13,74002.0,2.59,-24.57,-26.07,0,*77
1497582205.47,13635,18.13,74002.8,2.59,-25.19,-26.07,0,*7D
1497582206.72,13636,18.13,74004.5,2.59,-25.35,-25.97,0,*7A
1497582207.94,13637,18.13,74002.3,2.57,-25.35,-25.81,0,*72
1497582209.14,13638,18.13,74000.8,2.57,-25.23,-25.65,0,*70
1497582210.33,13639,18.13,74002.8,2.57,-25.19,-25.23,0,*7A
1497582211.56,13640,18.13,73998.5,2.53,-24.77,-24.87,0,*76
1497582212.82,13641,18.13,73996.5,2.53,-24.41,-24.87,0,*72
1497582214.05,13642,18.13,73996.8,2.53,-24.47,-25.29,0,*72
1497582215.26,13643,18.13,73996.8,2.53,-24.61,-25.61,0,*7B
1497582216.52,13644,18.13,73998.0,2.53,-24.87,-25.75,0,*71
1497582217.74,13645,18.13,73996.8,2.57,-25.09,-25.81,0,*78
1497582218.99,13646,18.13,73996.5,2.53,-25.29,-25.75,0,*76
1497582220.25,13647,18.13,73994.3,2.53,-25.55,-25.71,0,*78
1497582221.47,13648,18.13,73996.8,2.53,-25.45,-25.39,0,*7A
1497582222.68,13649,18.13,74002.5,2.53,-24.97,-25.39,0,*75
1497582223.94,13650,18.13,74002.3,2.53,-24.71,-25.45,0,*7E
1497582225.17,13651,18.13,74000.5,2.49,-24.67,-25.49,0,*7F
1497582226.45,13652,18.13,73992.0,2.51,-24.67,-25.29,0,*73
1497582227.68,13653,18.13,73980.3,2.51,-24.47,-24.97,0,*74
1497582228.96,13654,18.13,73994.3,2.51,-24.21,-25.03,0,*7F
1497582230.19,13655,18.13,73990.3,2.51,-24.05,-25.13,0,*79
1497582231.47,13656,18.13,73994.8,2.51,-23.85,-25.03,0,*74
1497582232.68,13657,18.13,73994.0,2.49,-23.69,-24.97,0,*72
1497582233.94,13658,18.13,73992.5,2.51,-23.79,-24.83,0,*70
1497582235.18,13659,18.13,73994.0,2.51,-23.79,-24.67,0,*7B
1497582236.41,13660,18.13,73994.0,2.51,-23.79,-24.77,0,*70
1497582237.69,13661,18.13,73992.0,2.51,-23.99,-24.83,0,*74
1497582238.94,13662,18.13,73998.5,2.49,-24.15,-25.03,0,*74
1497582240.17,13663,18.13,73994.5,2.49,-24.21,-25.19,0,*79
1497582241.4,13664,18.13,73998.0,2.49,-23.99,-24.97,0,*7D
1497582242.66,13665,18.13,73996.0,2.49,-24.21,-25.03,0,*74
1497582243.94,13666,18.13,73994.0,2.47,-24.41,-25.55,0,*7C
1497582245.16,13667,18.13,73998.3,2.47,-25.19,-25.87,0,*7E
1497582246.38,13668,18.13,73998.0,2.49,-25.45,-25.91,0,*71
1497582247.64,13669,18.13,73994.0,2.47,-25.49,-25.97,0,*74
1497582248.89,13670,18.13,73998.0,2.47,-25.49,-25.81,0,*7B
1497582250.15,13671,18.13,73994.0,2.47,-25.55,-25.39,0,*74
1497582251.37,13672,18.13,73998.0,2.47,-25.39,-24.51,0,*72
1497582252.6,13673,18.13,74000.8,2.49,-24.61,-23.33,0,*72
1497582253.8,13674,18.13,74000.8,2.45,-23.59,-22.87,0,*7B
1497582255.06,13675,18.13,74000.3,2.47,-22.93,-22.47,0,*73
1497582256.28,13676,18.13,74004.3,2.47,-22.57,-22.41,0,*7E
1497582257.54,13677,18.13,74000.0,2.47,-22.77,-21.93,0,*71
1497582258.75,13678,18.13,73996.0,2.45,-23.09,-20.39,0,*75
1497582260.0,13679,18.13,73994.8,2.49,-21.87,-18.55,0,*7D
1497582261.23,13680,18.13,73990.8,2.47,-20.89,-16.93,0,*7E
1497582262.45,13681,18.13,73992.0,2.47,-19.75,-15.63,0,*7A
1497582263.68,13682,18.13,73992.5,2.45,-18.25,-15.01,0,*7B
1497582264.91,13683,18.13,73990.5,2.47,-16.75,-15.71,0,*74
1497582266.18,13684,18.13,73992.0,2.47,-16.31,-16.65,0,*75
1497582267.45,13685,18.13,73992.8,2.47,-16.31,-17.97,0,*78
1497582268.69,13686,18.13,73992.3,2.47,-17.03,-18.99,0,*7A
1497582269.89,13687,18.13,73996.5,2.45,-18.11,-19.17,0,*72
1497582271.17,13688,18.13,73998.3,2.47,-19.81,-18.31,0,*72
1497582272.39,13689,18.13,73996.0,2.45,-19.91,-16.51,0,*78
1497582273.64,13690,18.13,73992.3,2.47,-18.69,-15.57,0,*71
1497582274.92,13691,18.13,73994.0,2.47,-17.25,-15.01,0,*74
1497582276.14,13692,18.13,73992.3,2.47,-15.99,-15.15,0,*77
1497582277.41,13693,18.13,73992.3,2.47,-15.35,-16.23,0,*76
1497582278.69,13694,18.13,73998.8,2.47,-15.43,-17.41,0,*75
1497582279.96,13695,18.13,73990.0,2.47,-16.51,-18.89,0,*7F
1497582281.16,13696,18.13,73996.5,2.49,-18.69,-19.47,0,*74
1497582282.38,13697,18.13,73992.5,2.49,-19.75,-18.55,0,*7B
1497582283.6,13698,18.13,73988.0,2.49,-19.75,-17.79,0,*75
1497582284.84,13699,18.13,73986.3,2.47,-19.47,-17.35,0,*73
1497582286.06,13700,18.13,73994.0,2.47,-18.83,-16.93,0,*76
1497582287.31,13701,18.13,73994.0,2.47,-17.83,-16.51,0,*76
1497582288.53,13702,18.13,73992.3,2.47,-16.93,-16.59,0,*7D
1497582289.81,13703,18.13,73992.5,2.47,-16.51,-17.07,0,*78
1497582291.08,13704,18.13,73998.5,2.47,-16.31,-17.55,0,*7E
1497582292.35,13705,18.13,73994.5,2.47,-16.51,-17.93,0,*73
1497582293.6,13706,18.13,73994.8,2.47,-16.89,-17.63,0,*7A
1497582294.8,13707,18.13,73996.0,2.49,-16.89,-16.97,0,*7F
1497582296.03,13708,18.13,73996.8,2.49,-16.31,-16.55,0,*7D
1497582297.28,13709,18.13,73996.0,2.49,-15.85,-16.31,0,*72
1497582298.51,13710,18.13,73994.8,2.49,-15.43,-16.41,0,*77
1497582299.71,13711,18.13,73996.5,2.49,-15.53,-16.75,0,*70
1497582300.94,13712,18.13,74000.3,2.49,-15.85,-16.83,0,*71
1497582302.18,13713,18.13,73996.0,2.49,-16.27,-17.35,0,*77
1497582303.4,13714,18.13,73996.0,2.49,-17.07,-17.31,0,*77
1497582304.67,13715,18.13,73996.0,2.49,-17.45,-17.07,0,*75
1497582305.92,13716,18.13,73998.0,2.49,-17.45,-17.21,0,*72
1497582307.18,13717,18.13,74000.8,2.49,-17.21,-17.59,0,*7E
1497582308.43,13718,18.13,73996.3,2.47,-17.21,-18.69,0,*73
1497582309.69,13719,18.13,73998.0,2.49,-17.45,-19.27,0,*75
1497582310.91,13720,18.13,74000.0,2.49,-17.59,-19.91,0,*7F
1497582312.12,13721,18.13,73996.5,2.49,-18.07,-20.63,0,*7D
1497582313.32,13722,18.13,73996.8,2.49,-19.03,-21.73,0,*7B
1497582314.52,13723,18.13,73996.8,2.49,-19.91,-22.87,0,*79
1497582315.77,13724,18.13,73998.5,2.49,-21.03,-23.69,0,*7F
1497582317.04,13725,18.13,74000.0,2.47,-22.31,-24.67,0,*7B
1497582318.31,13726,18.13,74002.0,2.47,-23.29,-24.71,0,*77
1497582319.57,13727,18.13,73998.0,2.47,-24.05,-25.03,0,*7B
1497582320.83,13728,18.13,73996.3,2.47,-24.25,-25.09,0,*7C
1497582322.09,13729,18.13,73996.0,2.47,-24.41,-25.39,0,*7C
1497582323.32,13730,18.13,73996.0,2.45,-24.83,-25.65,0,*71
1497582324.57,13731,18.13,73994.5,2.47,-24.97,-25.71,0,*72
1497582325.83,13732,18.13,73994.3,2.47,-24.97,-25.71,0,*71
1497582327.11,13733,18.13,73996.5,2.47,-25.03,-25.71,0,*7C
1497582328.35,13734,18.13,73996.0,2.47,-25.23,-25.81,0,*76
1497582329.58,13735,18.13,73994.8,2.45,-25.35,-25.81,0,*72
1497582330.81,13736,18.13,73996.8,2.45,-25.49,-25.55,0,*73
1497582332.01,13737,18.13,73996.5,2.45,-25.39,-24.97,0,*7A
1497582333.21,13738,18.13,73998.5,2.45,-25.09,-24.05,0,*7D
1497582334.41,13739,18.13,73996.3,2.45,-24.35,-23.13,0,*72
1497582335.65,13740,18.13,73998.0,2.47,-23.43,-22.97,0,*75
1497582336.87,13741,18.13,74000.3,2.47,-22.93,-23.13,0,*75
1497582338.1,13742,18.13,73996.8,2.45,-22.73,-22.93,0,*73
1497582339.33,13743,18.13,73992.3,2.45,-22.57,-22.73,0,*7A
1497582340.53,13744,18.13,73994.8,2.45,-22.87,-22.97,0,*7A
1497582341.76,13745,18.13,73998.3,2.45,-22.97,-22.31,0,*76
1497582342.99,13746,18.13,73996.5,2.45,-22.47,-21.77,0,*79
1497582344.21,13747,18.13,73996.5,2.45,-22.03,-21.33,0,*78
1497582345.45,13748,18.13,73996.8,2.45,-21.67,-20.59,0,*7B
1497582346.7,13749,18.13,73998.3,2.47,-21.67,-19.37,0,*7A
1497582347.94,13750,18.13,73998.5,2.45,-21.23,-17.83,0,*71
1497582349.19,13751,18.13,74002.8,2.47,-20.69,-16.17,0,*71
1497582350.42,13752,18.13,73992.5,2.47,-19.47,-14.23,0,*71
1497582351.62,13753,18.13,73998.5,2.45,-18.25,-12.89,0,*71
1497582352.87,13754,18.13,74002.0,2.47,-16.79,-11.73,0,*75
1497582354.11,13755,18.13,73996.3,2.47,-15.11,-11.33,0,*7D
1497582355.36,13756,18.13,73990.3,2.47,-14.01,-11.19,0,*76
1497582356.59,13757,18.13,73984.8,2.45,-13.29,-11.19,0,*78
1497582357.87,13758,18.13,73994.0,2.47,-12.75,-11.59,0,*79
1497582359.12,13759,18.13,73988.3,2.47,-12.29,-11.77,0,*7D
1497582360.34,13760,18.13,73984.5,2.47,-12.39,-12.25,0,*72
1497582361.56,13761,18.13,73990.8,2.47,-12.89,-12.25,0,*78
1497582362.77,13762,18.13,73994.0,2.49,-12.97,-12.21,0,*7E
1497582363.97,13763,18.13,73988.8,2.49,-13.11,-12.25,0,*74
1497582365.18,13764,18.13,73994.8,2.49,-13.23,-13.19,0,*7C
1497582366.39,13765,18.13,73994.3,2.49,-14.19,-14.65,0,*7F
1497582367.62,13766,18.13,73990.3,2.49,-15.71,-15.57,0,*73
1497582368.84,13767,18.13,73996.8,2.49,-17.79,-15.15,0,*7E
1497582370.1,13768,18.13,73992.3,2.51,-18.07,-13.97,0,*72
1497582371.35,13769,18.13,73994.5,2.49,-17.79,-12.79,0,*7D
1497582372.58,13770,18.13,73992.3,2.49,-17.21,-11.15,0,*71
1497582373.77,13771,18.13,73990.3,2.49,-15.99,-9.75,0,*4E
1497582374.99,13772,18.13,73990.5,2.51,-14.37,-8.89,0,*43
1497582376.23,13773,18.13,73992.3,2.51,-12.57,-8.75,0,*41
1497582377.45,13774,18.13,73992.0,2.51,-11.15,-8.93,0,*4B
1497582378.67,13775,18.13,73992.8,2.49,-10.41,-9.05,0,*4D
1497582379.86,13776,18.13,73992.8,2.49,-9.93,-9.19,0,*74
1497582381.07,13777,18.13,73994.8,2.51,-10.01,-9.05,0,*42
1497582382.29,13778,18.13,73994.5,2.51,-10.15,-8.63,0,*49
1497582383.56,13779,18.13,73994.5,2.51,-10.41,-7.57,0,*41
1497582384.81,13780,18.13,73992.3,2.51,-10.41,-6.51,0,*40
1497582386.02,13781,18.13,73990.3,2.49,-9.93,-5.89,0,*79
1497582387.27,13782,18.13,73990.3,2.51,-9.23,-5.31,0,*7B
1497582388.51,13783,18.13,73988.0,2.51,-8.51,-4.99,0,*7D
1497582389.74,13784,18.13,73990.5,2.53,-7.69,-4.77,0,*7C
1497582390.96,13785,18.13,73992.0,2.53,-6.89,-4.77,0,*72
1497582392.18,13786,18.13,73994.8,2.53,-6.35,-5.19,0,*7F
1497582393.4,13787,18.13,73994.3,2.53,-6.09,-5.73,0,*7D
1497582394.59,13788,18.13,73996.8,2.53,-5.97,-6.39,0,*7B
1497582395.83,13789,18.13,73994.5,2.57,-6.19,-6.97,0,*7F
1497582397.04,13790,18.13,73998.0,2.57,-6.23,-7.49,0,*7C
1497582398.25,13791,18.13,73996.5,2.53,-6.73,-7.95,0,*7D
1497582399.44,13792,18.13,73996.5,2.53,-7.15,-8.37,0,*78
1497582400.65,13793,18.13,73996.0,2.57,-7.91,-8.45,0,*74
1497582401.84,13794,18.13,73994.0,2.57,-8.67,-8.41,0,*71
1497582403.03,13795,18.13,73996.8,2.57,-8.97,-8.21,0,*79
1497582404.24,13796,18.13,73992.8,2.53,-9.31,-8.11,0,*70
1497582405.48,13797,18.13,74000.5,2.57,-9.53,-7.73,0,*7A
1497582406.72,13798,18.13,73998.5,2.57,-9.49,-7.35,0,*7C
1497582407.91,13799,18.13,73998.8,2.57,-9.01,-6.85,0,*7B
1497582409.13,13800,18.13,73992.8,2.57,-8.55,-6.93,0,*73
1497582410.34,13801,18.13,73998.5,2.57,-8.07,-6.85,0,*72
1497582411.58,13802,18.13,73992.0,2.59,-7.65,-6.73,0,*7D
1497582412.82,13803,18.13,73998.8,2.59,-7.35,-6.47,0,*7E
1497582414.01,13804,18.13,74002.0,2.57,-7.15,-6.43,0,*71
1497582415.23,13805,18.13,73998.0,2.57,-6.93,-6.35,0,*7E
1497582416.42,13806,18.13,73996.8,2.57,-6.73,-6.35,0,*73
1497582417.64,13807,18.13,73998.5,2.59,-6.59,-6.47,0,*71
1497582418.83,13808,18.13,73998.8,2.57,-6.59,-6.55,0,*73
1497582420.01,13809,18.13,74000.5,2.57,-6.47,-6.85,0,*70
1497582421.23,13810,18.13,74000.0,2.61,-7.01,-7.11,0,*72
1497582422.5,13811,18.13,74002.3,2.59,-7.61,-7.27,0,*7B
1497582423.73,13812,18.13,73998.0,2.59,-8.03,-7.15,0,*72
1497582424.95,13813,18.13,73994.8,2.59,-8.45,-6.55,0,*74
1497582426.19,13814,18.13,73998.8,2.59,-8.67,-5.81,0,*79
1497582427.4,13815,18.13,73998.5,2.59,-8.45,-5.35,0,*77
1497582428.62,13816,18.13,74002.0,2.61,-8.21,-4.85,0,*77
1497582429.83,13817,18.13,74002.5,2.59,-7.87,-4.49,0,*7E
1497582431.07,13818,18.13,74000.3,2.59,-7.23,-4.01,0,*73
1497582432.33,13819,18.13,73998.8,2.59,-6.97,-3.63,0,*7F
1497582433.52,13820,18.13,73996.3,2.61,-6.31,-3.27,0,*72
1497582434.76,13821,18.13,73996.8,2.59,-5.89,-3.07,0,*7A
1497582436.0,13822,18.13,73992.0,2.59,-5.35,-2.71,0,*7E
1497582437.2,13823,18.13,73992.5,2.61,-4.85,-2.43,0,*7F
1497582438.39,13824,18.13,73990.5,2.61,-4.41,-2.39,0,*7D
1497582439.61,13825,18.13,73998.0,2.59,-3.95,-2.43,0,*74
1497582440.85,13826,18.13,73994.8,2.61,-3.51,-2.51,0,*77
1497582442.07,13827,18.13,73988.8,2.61,-3.19,-2.75,0,*7C
1497582443.27,13828,18.13,73992.8,2.63,-3.07,-3.15,0,*79
1497582444.5,13829,18.13,73988.5,2.63,-2.91,-3.63,0,*77
1497582445.71,13830,18.13,73988.0,2.63,-2.95,-4.17,0,*7F
1497582446.94,13831,18.13,73990.0,2.63,-3.03,-4.69,0,*79
1497582448.19,13832,18.13,73996.0,2.63,-3.15,-5.31,0,*71
1497582449.42,13833,18.13,73988.5,2.63,-3.19,-6.27,0,*78
1497582450.69,13834,18.13,73990.5,2.63,-3.51,-7.43,0,*70
1497582451.92,13835,18.13,73988.8,2.63,-4.17,-9.11,0,*7D
1497582453.14,13836,18.13,73990.0,2.63,-5.47,-11.11,0,*43
1497582454.39,13837,18.13,73994.0,2.63,-7.57,-13.11,0,*43
1497582455.61,13838,18.13,73984.0,2.63,-10.05,-13.79,0,*73
1497582456.84,13839,18.13,73986.3,2.65,-11.93,-13.65,0,*77
1497582458.1,13840,18.13,73986.5,2.63,-12.93,-12.79,0,*70
1497582459.34,13841,18.13,73988.3,2.63,-12.79,-11.15,0,*7C
1497582460.59,13842,18.13,73988.3,2.63,-11.93,-9.89,0,*44
1497582461.8,13843,18.13,73990.8,2.63,-10.85,-9.05,0,*47
1497582463.05,13844,18.13,73990.3,2.63,-9.61,-8.81,0,*7F
1497582464.26,13845,18.13,73990.3,2.63,-9.05,-9.05,0,*71
1497582465.51,13846,18.13,73998.5,2.63,-8.85,-9.45,0,*7F
1497582466.74,13847,18.13,73996.0,2.63,-8.97,-9.57,0,*7E
1497582467.99,13848,18.13,73994.3,2.63,-9.37,-10.15,0,*44
1497582469.21,13849,18.13,73990.5,2.63,-10.05,-10.45,0,*79
1497582470.46,13850,18.13,73992.3,2.63,-10.63,-10.89,0,*71
1497582471.7,13851,18.13,73990.8,2.63,-11.37,-11.01,0,*71
1497582472.95,13852,18.13,73990.8,2.63,-11.73,-10.97,0,*7C
1497582474.23,13853,18.13,73998.3,2.63,-11.93,-10.71,0,*7B
1497582475.48,13854,18.13,73994.0,2.63,-12.25,-10.41,0,*71
1497582476.7,13855,18.13,73990.0,2.63,-12.39,-10.05,0,*7D
1497582477.92,13856,18.13,73994.3,2.63,-12.25,-9.75,0,*4C
1497582479.16,13857,18.13,73996.8,2.63,-11.85,-9.89,0,*47
1497582480.41,13858,18.13,73994.8,2.63,-11.73,-10.01,0,*79
1497582481.63,13859,18.13,73992.3,2.65,-11.55,-9.71,0,*45
1497582482.85,13860,18.13,73986.5,2.65,-11.41,-9.57,0,*4E
1497582484.12,13861,18.13,73986.3,2.63,-11.37,-9.57,0,*48
1497582485.38,13862,18.13,73984.8,2.63,-10.71,-9.57,0,*48
1497582486.62,13863,18.13,73994.5,2.63,-10.31,-9.57,0,*4D
1497582487.85,13864,18.13,73994.8,2.63,-9.93,-9.41,0,*7D
1497582489.08,13865,18.13,73988.3,2.63,-9.89,-9.37,0,*76
1497582490.28,13866,18.13,73984.3,2.63,-10.01,-9.23,0,*48
1497582491.49,13867,18.13,73990.5,2.63,-10.05,-9.05,0,*49
1497582492.7,13868,18.13,73990.0,2.63,-10.01,-9.05,0,*42
1497582493.92,13869,18.13,73986.0,2.63,-10.19,-8.97,0,*40
1497582495.16,13870,18.13,73988.3,2.63,-10.19,-8.81,0,*4F
1497582496.36,13871,18.13,73984.3,2.63,-9.93,-8.41,0,*78
1497582497.59,13872,18.13,73988.0,2.63,-9.57,-8.37,0,*72
1497582498.82,13873,18.13,73990.3,2.65,-9.15,-8.37,0,*73
1497582500.04,13874,18.13,73990.0,2.63,-8.81,-8.67,0,*7B
1497582501.25,13875,18.13,73990.5,2.65,-8.63,-8.81,0,*78
1497582502.49,13876,18.13,73994.8,2.63,-8.75,-9.37,0,*76
1497582503.72,13877,18.13,73996.8,2.63,-8.75,-9.57,0,*71
1497582504.94,13878,18.13,73996.3,2.65,-8.63,-9.61,0,*7A
1497582506.18,13879,18.13,74000.0,2.63,-8.81,-9.93,0,*7C
1497582507.4,13880,18.13,74002.8,2.63,-8.93,-10.05,0,*4E